Location: Home
(42.5358°N, 72.7383°W)
Time: 12:26:31
(UTC-05:00)

A-11 Canister half - Pass Details

Date: 06 December 2021
Orbit: 1516 x 1684 km, 47.2° (Epoch: 26 January)

Event Time Altitude Azimuth Distance (km) Brightness Sun altitude
Rises 07:23:17 0° 252° (WSW) 4,755 11.2 1.8°
Reaches altitude 10° 07:26:20 10° 254° (WSW) 3,793 10.7 2.3°
Maximum altitude 07:36:04 80° 341° (NNW) 1,658 9.2 3.7°
Drops below altitude 10° 07:46:11 10° 69° (ENE) 3,925 11.7 5.2°
Sets 07:49:23 0° 71° (ENE) 4,926 12.2 5.7°
